Tracking 29892 objects as of 21-Nov-2024
HD Live streaming from Space Station
objects crossing your sky now

OBJECT E

Track OBJECT E now!
10-day predictions


NORAD ID: 61242
Int'l Code: 2024-174E
Perigee: 507.4 km
Apogee: 532.8 km
Inclination: 97.5 °
Period: 94.9 minutes
Semi major axis: 6891 km
RCS: Unknown
Launch date: September 24, 2024
Source: People's Republic of China (PRC)
Launch site: Jiuquan Satellite Launch Center, China (JSC)
Your satellite tracking list
Your tracking list is empty




NASA's NSSDC Master Catalog

Two Line Element Set (TLE):
1 61242U 24174E   24326.15276848  .00010514  00000-0  52311-3 0  9997
2 61242  97.4561 330.5039 0018402  85.4785 274.8550 15.17646583  8627
Source of the keplerian elements: AFSPC